Regional Weather Roundup
Issued by NWS

Home | Current Version | Previous Version | Graphics & Text | Print | Product List | Glossary Off
Versions: 1 2 3 4 5 6 7 8 9 10 11 12 13 14 15 16 17 18 19 20 21 22 23 24 25 26 27 28 29 30 31 32 33 34 35 36 37 38 39 40 41 42 43 44 45 46 47 48 49 50

000
ASUS43 KMKX 311121
RWRWI

WISCONSIN REGIONAL WEATHER ROUNDUP
NATIONAL WEATHER SERVICE MILWAUKEE/SULLIVAN WI
600 AM CDT MON AUG 31 2015

NOTE: "FAIR" INDICATES FEW OR NO CLOUDS BELOW 12,000 FEET WITH NO
SIGNIFICANT WEATHER AND/OR OBSTRUCTIONS TO VISIBILITY.

WIZ001-002-006>008-014>016-023>028-311200-
NORTHWEST WISCONSIN

CITY           SKY/WX    TMP DP  RH WIND       PRES   REMARKS
SUPERIOR ARPT  FOG       57  57 100 CALM      29.87F VSB<1/4
ASHLAND        CLEAR     63  63 100 S6        29.92S
HAYWARD        CLOUDY    65  63  93 S8        29.95S
SIREN          PTCLDY    64  63  96 S3        29.93S FOG
CUMBERLAND     CLOUDY    63  63 100 S6        29.96S FOG
RICE LAKE      CLOUDY    64  63  95 S6        29.98S FOG
CHETEK         CLOUDY   N/A N/A N/A E5        29.98R HAZE
LADYSMITH      FOG       63  62  97 S3        30.00S VSB 1/2
EAU CLAIRE     CLOUDY    63  61  93 S5        29.97S
MENOMONIE      CLOUDY    61  61  99 SE5       29.98S FOG
NEW RICHMOND   MOCLDY    62  62  99 S5        29.95S FOG
OSCEOLA        CLOUDY    64  64 100 S8        29.96S
$$

WIZ003>005-009-010-017-018-311200-
NORTH CENTRAL WISCONSIN

CITY           SKY/WX    TMP DP  RH WIND       PRES   REMARKS
MANITOWISH WTR CLOUDY    63  63 100 SW8       29.99R
ARBOR VITAE    CLOUDY    64  62  94 SW7       30.00R
WOODRUFF       CLOUDY    64  62  94 SW7       30.00R
RHINELANDER    CLOUDY    64  62  93 SW6       30.01S FOG
EAGLE RIVER    CLOUDY    63  62  97 SW7       29.99S
LAND O LAKES   CLOUDY    63  61  96 CALM      30.00S
PHILLIPS       FOG       62  62 100 SW5       29.99S VSB 3/4
TOMAHAWK       CLOUDY    63  62  97 CALM      30.01S FOG
MEDFORD        FOG       61  61 100 SW3       30.02R VSB 1/4
MERRILL        CLOUDY    63  63 100 W6        30.01F FOG
$$

WIZ029-030-035-036-043>047-311200-
CENTRAL WISCONSIN

CITY           SKY/WX    TMP DP  RH WIND       PRES   REMARKS
WAUSAU         FOG       62  61  96 SW5       30.00S VSB 3/4
MOSINEE        CLEAR     61  61 100 CALM      30.03S VSB 1/4
MARSHFIELD     FOG       60  58  92 S5        30.02R VSB<1/4
STEVENS POINT  FOG       59  59 100 SW3       30.02S VSB 1/4
WAUPACA        CLOUDY    58  57  96 CALM      30.02S FOG
WAUTOMA        CLOUDY    59  59 100 CALM      30.03S FOG
WISC RAPIDS    FOG       60  58  92 SW5       30.03S VSB 1/4
CAMP DOUGLAS   MOCLDY    59  59 100 SE5       30.02S FOG
$$

WIZ011>013-019>022-031-037>040-048>050-311200-
NORTHEAST WISCONSIN

CITY           SKY/WX    TMP DP  RH WIND       PRES   REMARKS
ANTIGO         CLOUDY    62  62 100 W7        30.02S FOG
SHAWANO        FOG       63  62  96 SW5       30.01S VSB 1/2
OCONTO         PTCLDY    58  58 100 CALM      29.99S
STURGEON BAY   CLEAR     64  61  88 SW8       30.02S
GREEN BAY      FOG       62  61  96 SW6       30.02R VSB 1/2
MANITOWOC      CLEAR     54  53  97 MISG      30.03R FOG
APPLETON       FOG       61  61 100 CALM      30.01S VSB 1/4
CLINTONVILLE   FOG       57  55  94 CALM      30.02R VSB 1/4
OSHKOSH        FOG       58  56  93 S3        30.03R VSB 1/4
$$

WIZ032>034-041-042-053>061-311200-
SOUTHWEST WISCONSIN

CITY           SKY/WX    TMP DP  RH WIND       PRES   REMARKS
LA CROSSE      PTCLDY    65  63  93 S8        30.00S
SPARTA         CLOUDY    56  55  95 CALM      30.02S
VIROQUA          N/A     64  64 100 S5        30.03S
BOSCOBEL       FOG       60  59  96 CALM      30.03R VSB 1/4
PRAIRIE DU CHI FOG       59  57  96 SE3       30.02S VSB 1
PLATTEVILLE      N/A     59  59 100 SE5       30.04S VSB 3/4
$$

WIZ056-057-062-063-064-067-068-311200-
SOUTH CENTRAL WISCONSIN

CITY           SKY/WX    TMP DP  RH WIND       PRES   REMARKS
REEDSBURG      CLOUDY    61  61  99 CALM      30.04R
BARABOO/DELLS  CLOUDY    63  62  96 CALM      30.04R FOG
LONE ROCK      CLOUDY    60  59  96 CALM      30.04R
MINERAL POINT  FOG       63  61  94 S3        30.05R VSB 1/4
MADISON        CLEAR     57  56  96 CALM      30.04R FOG
MIDDLETON      CLOUDY    55  55 100 CALM      30.05R VSB 1/4
WATERTOWN      FOG       54  54 100 CALM      30.04R VSB 1/4
MONROE         PTCLDY    61  61 100 SW7       30.05R FOG
JANESVILLE     FOG       59  57  94 CALM      30.04S VSB 1/8
$$

WIZ051-052-058>065-066-070>072-311200-
SOUTHEAST WISCONSIN

CITY           SKY/WX    TMP DP  RH WIND       PRES   REMARKS
MILWAUKEE      FOG       60  59  96 SW6       30.04S VSB 1/4
WAUKESHA       FOG       55  55 100 CALM      30.05F VSB 1
MILWAUKEE/TIMM FOG       57  54  88 CALM      30.05S VSB 3/4
RACINE         FOG       60  58  92 SW3       30.07R VSB 1/2
BURLINGTON     FOG       56  56  99 CALM      30.05S VSB 1/4
KENOSHA        FOG       60  59  96 CALM      30.06R VSB 1/4
FOND DU LAC    FOG       60  59  96 SW5       30.04R VSB 3/4
SHEBOYGAN      FOG       57  57 100 CALM      30.03S VSB 1/4
WEST BEND      FOG       55  55 100 CALM      30.04R VSB 1/2
JUNEAU         FOG       56  56  99 CALM      30.05S VSB 1/4
$$

LSZ147-162-311200-
LAKE SUPERIOR

STATION/POSITION TIME  TEMP    WIND        PRES    WAVE
                       AIR SEA DIR/SP/G            HT/PER
                 (UTC) (F)     (DEG/KT/KT) (MB)    (FT/S)
W MID LAKE BUOY  1050   60 54  210/ 12/ 12 1012.3R   1/ 3
DEVILS ISLAND    1100   65     180/  7/  9 1012.1R
PORT WING        1000   66     180/  5/  8 1012.5R
SAXON HARBOR     1040   65      CALM  /  2 1012.5S
$$

LMZ867-665-643>646-311200-
LAKE MICHIGAN

STATION/POSITION TIME  TEMP    WIND        PRES    WAVE
                       AIR SEA DIR/SP/G            HT/PER
                 (UTC) (F)     (DEG/KT/KT) (MB)    (FT/S)
CHAMBERS ISLAND  1000   63     180/  5/  9 1014.9S
S GREEN BAY BUOY 1100   64 63  220/ 10/ 14 1017.2R
N MID LAKE BUOY  1050   64 65  220/ 12/ 14 1014.8R   2/ 4
NORTHPORT PIER   1000   66     270/  3/  7 1014.6F
SHEBOYGAN LAKESH 1100   57     180/  5/  5 1017.1R
PORT WASHINGTON  1000   52      CALM  /  1 1017.6S
ATWATER BUOY     1100   57 49  200/  6/  6 1018.5R
MILWAUKEE LAKESH 1000   62     200/  4/  4   N/A
S MID LAKE BUOY  1050   68     220/  4     1017.1R
KENOSHA   LAKESH 1100   63     260/  4/  5 1017.3R
$$

TC  - TEMPERATURE IN CELSIUS
VSB - VISIBILITY IN STATUTE MILES
WCI - WIND CHILL INDEX
HX  - HEAT INDEX




USA.gov is the U.S. government's official web portal to all federal, state and local government web resources and services.